When you browse on this site, cookies collect data to enhance your experience and personalize the content and advertising you see.
Visit our Privacy Policy to learn more. By continuing to use the site, you agree to this use of cookies and data.
  • In Latvia
  • List of Countries
  • For 7 days
  • Water Temperature
  • Weather Map
  • Weather Widgets
  • user-avatar
    Login

    Hourly Weather Kaunas

    Today, 29 May, Friday

    Time Temperature Precipitation Wind Pressure Humidity
    00:00 +7°C° 0 mm 5 mps 762 mmHg 75%
    01:00 +7°C° 0 mm 5 mps 762 mmHg 76%
    02:00 +6°C° 0 mm 4 mps 762 mmHg 78%
    03:00 +5°C° 0 mm 4 mps 762 mmHg 80%
    04:00 +5°C° 0 mm 4 mps 762 mmHg 82%
    05:00 +5°C° 0 mm 4 mps 762 mmHg 84%
    06:00 +6°C° 0 mm 5 mps 762 mmHg 82%
    07:00 +8°C° 0 mm 5 mps 762 mmHg 79%
    08:00 +9°C° 0 mm 5 mps 762 mmHg 77%
    09:00 +12°C° 0 mm 5 mps 761 mmHg 72%
    10:00 +13°C° 0 mm 6 mps 761 mmHg 67%
    11:00 +15°C° 0 mm 6 mps 761 mmHg 62%
    12:00 +15°C° 0 mm 6 mps 761 mmHg 60%
    13:00 +16°C° 0 mm 6 mps 760 mmHg 58%
    14:00 +17°C° 0 mm 6 mps 760 mmHg 56%
    15:00 +16°C° 0.2 mm 6 mps 760 mmHg 59%
    16:00 +16°C° 0.2 mm 6 mps 759 mmHg 62%
    17:00 +16°C° 0.2 mm 6 mps 759 mmHg 66%
    18:00 +14°C° 0.1 mm 6 mps 759 mmHg 69%
    19:00 +13°C° 0.1 mm 6 mps 759 mmHg 73%
    20:00 +11°C° 0.1 mm 6 mps 759 mmHg 76%
    21:00 +10°C° 0 mm 6 mps 759 mmHg 76%
    22:00 +9°C° 0 mm 5 mps 759 mmHg 76%
    23:00 +8°C° 0 mm 5 mps 759 mmHg 76%

    Tomorrow, 30 May, Saturday

    Time Temperature Precipitation Wind Pressure Humidity
    00:00 +8°C° 0 mm 5 mps 759 mmHg 76%
    01:00 +7°C° 0 mm 5 mps 759 mmHg 77%
    02:00 +7°C° 0 mm 5 mps 759 mmHg 77%
    03:00 +7°C° 0 mm 5 mps 759 mmHg 74%
    04:00 +7°C° 0 mm 5 mps 759 mmHg 71%
    05:00 +7°C° 0 mm 5 mps 758 mmHg 67%
    06:00 +8°C° 0 mm 6 mps 758 mmHg 68%
    07:00 +9°C° 0 mm 6 mps 758 mmHg 68%
    08:00 +9°C° 0 mm 6 mps 758 mmHg 68%
    09:00 +11°C° 0 mm 7 mps 758 mmHg 65%
    10:00 +14°C° 0 mm 7 mps 757 mmHg 63%
    11:00 +15°C° 0 mm 8 mps 757 mmHg 60%
    12:00 +16°C° 0 mm 8 mps 756 mmHg 61%
    13:00 +16°C° 0 mm 8 mps 756 mmHg 61%
    14:00 +17°C° 0 mm 8 mps 756 mmHg 62%
    15:00 +17°C° 0 mm 8 mps 755 mmHg 63%
    16:00 +17°C° 0 mm 8 mps 755 mmHg 63%
    17:00 +18°C° 0 mm 7 mps 755 mmHg 64%
    18:00 +17°C° 0.1 mm 7 mps 755 mmHg 67%
    19:00 +15°C° 0.1 mm 6 mps 755 mmHg 71%
    20:00 +14°C° 0.1 mm 6 mps 754 mmHg 74%
    21:00 +14°C° 0.1 mm 6 mps 754 mmHg 70%
    22:00 +14°C° 0.1 mm 7 mps 754 mmHg 65%
    23:00 +13°C° 0.1 mm 8 mps 754 mmHg 60%

    Day after tomorrow, 31 May, Sunday

    Time Temperature Precipitation Wind Pressure Humidity
    00:00 +13°C° 0 mm 8 mps 754 mmHg 59%
    01:00 +13°C° 0 mm 8 mps 754 mmHg 58%
    02:00 +13°C° 0 mm 8 mps 754 mmHg 57%
    03:00 +12°C° 0 mm 8 mps 754 mmHg 61%
    04:00 +11°C° 0 mm 8 mps 754 mmHg 64%
    05:00 +11°C° 0 mm 8 mps 754 mmHg 67%
    06:00 +11°C° 0 mm 8 mps 755 mmHg 66%
    07:00 +12°C° 0 mm 9 mps 755 mmHg 66%
    08:00 +13°C° 0 mm 9 mps 755 mmHg 65%
    09:00 +15°C° 0 mm 9 mps 756 mmHg 63%
    10:00 +16°C° 0 mm 9 mps 756 mmHg 60%
    11:00 +17°C° 0 mm 9 mps 756 mmHg 58%
    12:00 +18°C° 0 mm 9 mps 756 mmHg 57%
    13:00 +18°C° 0 mm 9 mps 756 mmHg 56%
    14:00 +19°C° 0 mm 9 mps 757 mmHg 55%
    15:00 +20°C° 0 mm 8 mps 757 mmHg 57%
    16:00 +20°C° 0 mm 7 mps 757 mmHg 58%
    17:00 +20°C° 0 mm 7 mps 757 mmHg 60%
    18:00 +17°C° 0 mm 7 mps 758 mmHg 62%
    19:00 +16°C° 0 mm 6 mps 758 mmHg 65%
    20:00 +15°C° 0 mm 6 mps 758 mmHg 67%
    21:00 +14°C° 0 mm 6 mps 759 mmHg 65%
    22:00 +13°C° 0 mm 5 mps 760 mmHg 63%
    23:00 +12°C° 0 mm 5 mps 760 mmHg 62%

    1 June, Monday

    Time Temperature Precipitation Wind Pressure Humidity
    00:00 +10°C° 0 mm 5 mps 761 mmHg 65%
    01:00 +10°C° 0 mm 5 mps 761 mmHg 67%
    02:00 +10°C° 0 mm 4 mps 761 mmHg 70%
    03:00 +8°C° 0 mm 4 mps 762 mmHg 72%
    04:00 +8°C° 0 mm 4 mps 762 mmHg 74%
    05:00 +7°C° 0 mm 4 mps 762 mmHg 75%
    06:00 +8°C° 0 mm 5 mps 762 mmHg 72%
    07:00 +10°C° 0 mm 5 mps 762 mmHg 68%
    08:00 +11°C° 0 mm 6 mps 763 mmHg 64%
    09:00 +13°C° 0 mm 6 mps 763 mmHg 62%
    10:00 +14°C° 0 mm 6 mps 763 mmHg 59%
    11:00 +16°C° 0 mm 6 mps 763 mmHg 57%
    12:00 +16°C° 0 mm 6 mps 762 mmHg 58%
    13:00 +16°C° 0 mm 5 mps 762 mmHg 59%
    14:00 +17°C° 0 mm 5 mps 762 mmHg 60%
    15:00 +17°C° 0.1 mm 5 mps 762 mmHg 62%
    16:00 +18°C° 0.1 mm 4 mps 762 mmHg 63%
    17:00 +18°C° 0.1 mm 4 mps 761 mmHg 64%
    18:00 +17°C° 0.1 mm 4 mps 761 mmHg 69%
    19:00 +16°C° 0.1 mm 3 mps 761 mmHg 75%
    20:00 +14°C° 0.1 mm 3 mps 761 mmHg 81%
    21:00 +13°C° 0 mm 3 mps 761 mmHg 84%
    22:00 +13°C° 0 mm 2 mps 761 mmHg 87%
    23:00 +12°C° 0 mm 2 mps 761 mmHg 91%

    2 June, Tuesday

    Time Temperature Precipitation Wind Pressure Humidity
    00:00 +12°C° 0 mm 2 mps 761 mmHg 92%
    01:00 +10°C° 0 mm 2 mps 761 mmHg 93%
    02:00 +10°C° 0 mm 2 mps 761 mmHg 95%
    03:00 +10°C° 0 mm 2 mps 761 mmHg 94%
    04:00 +10°C° 0 mm 2 mps 761 mmHg 94%
    05:00 +10°C° 0 mm 2 mps 761 mmHg 94%
    06:00 +12°C° 0 mm 2 mps 760 mmHg 88%
    07:00 +13°C° 0 mm 3 mps 760 mmHg 83%
    08:00 +14°C° 0 mm 3 mps 760 mmHg 78%
    09:00 +15°C° 0 mm 4 mps 760 mmHg 72%
    10:00 +17°C° 0 mm 4 mps 760 mmHg 65%
    11:00 +17°C° 0 mm 5 mps 760 mmHg 58%
    12:00 +17°C° 0 mm 5 mps 760 mmHg 57%
    13:00 +17°C° 0 mm 5 mps 759 mmHg 57%
    14:00 +17°C° 0 mm 5 mps 759 mmHg 56%
    15:00 +18°C° 0 mm 4 mps 759 mmHg 57%
    16:00 +18°C° 0 mm 4 mps 759 mmHg 58%
    17:00 +18°C° 0 mm 3 mps 758 mmHg 59%
    18:00 +17°C° 0 mm 3 mps 758 mmHg 65%
    19:00 +15°C° 0 mm 2 mps 758 mmHg 70%
    20:00 +14°C° 0 mm 1 mps 758 mmHg 76%
    21:00 +13°C° 0 mm 1 mps 758 mmHg 77%
    22:00 +12°C° 0 mm 1 mps 758 mmHg 77%
    23:00 +10°C° 0 mm 0 mps 758 mmHg 78%

    3 June, Wednesday

    Time Temperature Precipitation Wind Pressure Humidity
    00:00 +11°C° 0 mm 0 mps 758 mmHg 76%
    01:00 +11°C° 0 mm 0 mps 757 mmHg 74%
    02:00 +11°C° 0 mm 0 mps 757 mmHg 73%
    03:00 +11°C° 0 mm 0 mps 757 mmHg 74%
    04:00 +12°C° 0 mm 1 mps 757 mmHg 75%
    05:00 +12°C° 0 mm 1 mps 757 mmHg 75%
    06:00 +14°C° 0 mm 1 mps 757 mmHg 73%
    07:00 +15°C° 0 mm 1 mps 757 mmHg 71%
    08:00 +16°C° 0 mm 1 mps 756 mmHg 69%
    09:00 +18°C° 0 mm 1 mps 756 mmHg 68%
    10:00 +18°C° 0 mm 2 mps 756 mmHg 67%
    11:00 +19°C° 0 mm 2 mps 756 mmHg 66%
    12:00 +19°C° 0.5 mm 2 mps 755 mmHg 67%
    13:00 +20°C° 0.5 mm 3 mps 755 mmHg 69%
    14:00 +20°C° 0.5 mm 3 mps 754 mmHg 70%
    15:00 +20°C° 1.2 mm 2 mps 754 mmHg 74%
    16:00 +19°C° 1.2 mm 2 mps 754 mmHg 77%
    17:00 +20°C° 1.2 mm 1 mps 754 mmHg 81%
    18:00 +19°C° 0.3 mm 1 mps 753 mmHg 83%
    19:00 +17°C° 0.3 mm 2 mps 753 mmHg 86%
    20:00 +16°C° 0.3 mm 2 mps 753 mmHg 88%
    21:00 +15°C° 0 mm 2 mps 753 mmHg 90%
    22:00 +14°C° 0 mm 2 mps 753 mmHg 91%
    23:00 +14°C° 0 mm 2 mps 753 mmHg 93%
    Show more